Starlink 3131

operational
NORAD ID: 49427 Int'l Des: 2021-104 Owner: SPXS Country: US Constellation: starlink
LEOCIRCULAR

About Starlink 3131

Description loading...

Live Position

Loading 3D Globe...

Upcoming Passes

Altitude History

Altitude vs Time

uPlot chart will show altitude changes over time

Two-Line Element Set

1 49427U 21104V 25350.93855478 .00001254 00000-0 96855-4 0 9997
2 49427 53.2167 240.6136 0001446 86.2395 273.8762 15.08840783226146
Epoch: Dec 16, 2025 • Age: 11 hours

Current Status

Altitude 541.6 km
Velocity 7.59 km/s
Sub-Earth Point -5.40°S, 3.88°E
Launch Date Nov 13, 2021
Age 4 years
Type internet

Technical Details

Classification Payload
Mass 290.00 kg
Dry Mass 270.00 kg
Total Mass 290.00 kg
Length 0.20 m
Diameter 2.80 m
Span 9.00 m
Shape Box + pan
Manufacturer SPXS
Bus Type Starlink
Phase Status In Orbit
Owner/State SPXS/US

Large Constellations

Loading constellations...